GFSNGP_250_spd_090.txt.gz
Wind_Speed
43 40 40 44 47 53 56 60 61 64 71 71 68 62 62 59 58 53 55 59 60 52 39 34 37 43 44 54 58 57 57 56 54 49 44 39 36 34 32 32 31 29 28 28
42 40 45 46 48 55 59 66 65 65 64 61 62 62 62 61 54 52 56 52 45 37 34 37 41 45 51 59 63 62 62 60 57 53 48 43 40 38 37 35 35 34 35 35
43 42 48 48 46 59 62 61 61 55 52 61 61 62 61 52 54 55 45 33 34 34 35 34 39 48 58 62 63 64 64 61 59 55 50 45 43 40 40 40 40 39 41 40
44 49 51 43 48 52 56 54 51 53 56 55 55 59 55 55 53 39 36 29 35 34 36 35 43 51 60 60 61 62 62 61 59 55 51 49 48 46 44 44 45 45 46 46
46 49 43 43 48 48 47 49 48 54 57 54 50 53 56 48 41 39 42 35 36 37 40 39 42 52 57 58 56 58 58 60 58 55 53 51 51 51 50 50 49 47 49 51
39 37 35 39 39 46 44 47 53 53 57 55 49 45 44 42 39 45 47 37 37 39 42 43 45 54 54 54 55 55 56 56 57 57 56 56 55 54 57 56 54 52 53 53
34 34 40 41 47 46 43 48 54 53 53 58 56 49 43 42 46 48 46 36 41 42 42 44 44 47 49 53 51 51 51 49 51 55 55 58 59 59 61 62 60 59 58 59
36 40 44 44 44 45 44 47 51 52 51 55 59 56 52 53 54 52 48 38 47 44 45 45 45 47 49 48 47 45 46 44 51 54 56 55 55 58 60 62 64 64 65 64
42 45 45 44 46 46 45 42 45 50 53 56 58 58 57 55 52 50 44 46 50 50 49 48 46 49 53 55 49 47 49 60 56 52 52 55 53 48 50 57 57 57 65 66
41 43 43 44 45 43 44 44 48 52 54 57 58 58 51 46 44 45 49 53 51 52 49 51 52 54 54 54 57 59 59 60 60 56 57 60 61 57 63 69 57 64 69 69
38 40 41 40 42 42 45 47 48 52 56 57 59 57 52 49 47 47 57 57 57 57 55 56 62 63 61 60 60 62 62 64 68 70 67 67 68 71 77 88 82 79 77 73
37 38 40 41 43 43 45 49 49 51 56 59 62 62 60 58 53 52 59 61 65 63 66 67 65 67 69 71 72 74 72 71 69 67 69 71 72 73 79 86 90 89 88 81
36 39 39 40 42 45 48 50 51 50 52 57 61 65 65 67 64 62 62 64 68 70 70 70 70 71 74 74 75 76 77 77 72 70 79 88 82 88 92 94 95 95 95 91
33 34 34 33 33 35 41 47 47 49 52 51 54 59 61 62 66 69 68 71 72 77 77 76 78 79 80 82 82 84 84 86 83 83 83 90 94 98 92 89 93 96 98 101
24 25 26 23 20 25 33 37 41 44 46 48 49 50 55 61 64 67 73 78 79 81 82 83 82 86 86 88 88 89 91 91 95 94 94 101 103 105 107 98 99 100 98 102
21 23 23 22 24 27 30 32 34 40 42 42 44 45 49 55 62 64 65 72 81 86 88 90 90 92 93 94 95 95 95 99 105 105 108 107 115 113 110 109 114 111 108 107
20 21 22 23 27 31 33 33 34 37 39 41 42 43 45 50 56 61 62 68 71 81 91 94 96 95 96 101 103 104 105 105 108 111 116 113 116 118 120 121 119 119 120 123
19 20 21 22 23 26 28 31 33 36 38 40 42 43 44 47 52 57 61 63 69 73 83 95 100 102 102 101 102 109 111 112 114 117 118 122 123 126 124 127 128 130 132 133
14 16 18 19 20 23 26 28 31 33 36 38 40 42 44 46 50 54 59 63 67 71 74 81 91 100 106 108 108 106 108 113 120 121 125 128 130 132 134 135 136 140 144 146
13 14 15 17 19 21 24 27 30 34 37 40 44 46 49 50 52 54 57 60 65 70 73 77 79 83 90 98 107 113 115 115 113 116 123 132 135 136 137 139 140 141 142 142
16 17 18 19 20 22 24 27 29 32 35 39 42 45 48 50 52 54 56 59 60 64 67 72 75 79 82 86 90 95 99 105 110 116 121 125 126 126 128 130 130 131 132 134
13 13 14 15 17 20 23 26 29 32 36 39 42 45 48 51 54 57 60 63 67 68 72 75 77 79 81 84 86 88 90 91 93 95 98 100 103 106 108 110 112 113 113 112
12 14 15 17 19 21 24 27 30 33 36 39 42 45 49 53 56 59 62 65 68 71 74 76 77 78 79 81 83 85 87 89 91 92 93 95 96 98 99 100 101 102 102 102
10 10 12 14 17 19 23 26 29 33 36 40 44 47 51 54 56 61 64 68 70 72 72 73 74 75 77 78 79 80 81 83 84 85 87 88 89 90 90 91 91 90 90 89
8 11 13 16 19 22 25 29 32 37 40 44 48 52 55 58 62 65 68 71 71 71 73 75 75 76 77 77 78 78 78 77 77 77 77 77 77 77 77 78 78 79 79 79
10 13 16 20 24 27 31 34 38 43 46 48 52 57 59 61 63 65 66 66 66 68 68 68 69 70 71 72 73 74 74 74 74 73 73 73 73 73 73 73 73 74 74 75
16 19 23 26 31 35 38 42 45 48 52 53 56 58 61 64 65 66 65 65 65 64 64 64 64 64 64 63 63 64 65 65 66 66 66 67 67 67 68 69 69 69 69 69

GFSNGP_250_spd_093.txt.gz
Wind_Speed
39 37 39 38 37 37 39 44 46 52 60 62 62 64 68 63 58 52 47 50 50 50 50 52 55 56 47 36 37 37 41 41 56 52 51 49 48 43 38 35 32 31 28 22
34 34 36 34 39 43 46 48 53 62 68 67 64 63 61 59 50 44 49 52 48 46 51 50 49 49 45 31 29 39 45 54 55 56 54 52 50 45 43 40 36 34 31 28
32 31 34 37 46 45 43 50 57 66 66 65 70 65 60 57 53 49 46 46 50 52 53 52 49 43 35 35 38 40 53 59 60 59 59 56 53 48 45 43 41 38 35 33
29 34 38 42 46 44 46 50 59 60 58 59 63 64 64 60 54 48 47 50 50 49 51 48 45 36 35 38 43 49 57 68 63 59 61 59 54 50 46 42 42 42 40 41
32 35 43 49 45 34 41 47 51 53 53 54 57 62 68 67 64 59 54 49 50 48 48 41 39 35 37 39 46 52 58 68 70 68 64 60 53 50 49 47 45 44 42 43
35 41 48 46 40 36 41 43 42 46 50 49 52 58 58 68 68 62 58 56 51 50 41 39 35 37 39 40 49 56 58 61 67 68 66 59 54 52 52 52 52 52 51 50
32 38 37 31 40 40 42 47 43 41 47 47 50 55 55 56 64 63 60 54 51 46 40 39 40 39 43 43 40 56 54 57 58 61 61 58 57 56 57 57 57 56 57 58
30 36 32 30 28 31 39 45 44 41 46 50 51 51 51 53 51 52 57 50 49 44 43 39 46 45 48 50 48 52 48 48 54 56 61 60 60 61 60 61 61 60 61 61
34 36 34 35 35 34 38 43 44 41 46 50 51 51 51 51 47 47 50 50 49 45 44 42 50 47 48 49 48 52 53 53 52 52 55 59 59 56 55 59 59 62 62 64
36 36 38 40 41 43 46 47 45 41 42 49 52 53 54 55 53 48 51 52 47 52 48 45 51 53 51 53 52 58 57 57 56 55 53 55 57 60 62 63 62 58 59 58
34 37 37 39 40 42 47 48 46 46 46 49 54 56 55 56 56 56 54 54 53 55 53 50 56 57 57 55 55 56 57 61 64 65 62 60 62 66 67 62 59 63 66 61
32 37 38 39 39 40 43 45 44 44 46 48 53 57 57 57 58 61 60 59 60 59 56 56 59 62 62 62 61 62 63 62 65 70 71 71 66 72 74 70 67 72 67 71
30 34 37 38 39 39 41 45 45 45 49 49 53 57 59 59 61 61 62 60 60 57 58 61 62 70 69 66 67 67 68 69 71 71 73 74 74 78 78 77 77 78 80 82
27 32 34 35 35 36 38 41 45 47 49 51 51 55 58 60 62 63 61 56 57 55 61 67 69 72 74 75 75 74 76 77 77 78 78 79 79 82 84 84 86 89 88 90
25 25 27 30 27 25 30 31 35 45 46 49 50 51 54 56 60 61 62 60 60 61 60 69 71 77 77 80 80 79 83 84 84 83 84 85 86 89 92 92 94 96 98 97
22 21 21 22 23 23 22 22 26 33 40 43 47 49 50 49 50 55 61 64 65 67 68 70 74 77 84 85 85 86 86 89 90 95 94 95 97 98 99 99 100 101 104 104
19 20 21 23 25 26 27 30 34 36 38 43 46 47 49 49 50 51 55 61 67 71 73 77 82 80 86 89 92 94 96 97 98 99 99 103 104 105 108 109 109 109 111 113
18 19 19 20 21 23 27 30 32 34 35 37 41 44 45 47 48 52 56 57 59 64 69 74 78 82 90 93 99 100 100 103 105 105 108 109 111 113 115 117 118 119 120 122
17 17 17 18 19 20 23 25 27 29 31 33 36 40 44 47 49 52 55 57 59 62 66 69 74 77 81 84 93 104 108 110 110 112 113 115 118 119 121 123 126 127 128 128
16 15 16 16 17 18 20 22 25 27 29 32 35 38 41 44 46 49 51 53 56 58 61 63 68 71 75 80 83 86 92 100 111 115 115 116 119 120 122 124 125 128 131 132
13 12 12 13 14 17 19 21 23 25 28 30 33 36 38 41 44 47 50 52 56 59 60 62 66 70 73 76 80 83 86 89 93 98 103 109 112 114 111 111 115 118 120 120
9 9 9 10 12 14 16 17 19 21 24 27 30 33 36 40 44 47 51 55 57 60 63 67 69 71 74 77 80 82 84 86 87 88 91 93 96 99 101 104 106 108 108 109
3 4 6 8 10 12 14 17 19 21 24 27 30 33 37 41 45 49 52 55 58 62 65 68 71 73 75 76 78 79 80 82 83 85 88 89 91 93 94 96 98 100 101 103
2 4 5 7 9 11 14 17 20 24 27 31 35 38 42 45 50 54 56 58 60 64 69 70 71 72 72 72 73 73 74 75 77 78 80 81 83 84 86 87 89 90 90 91
2 5 7 10 12 16 19 23 27 30 34 38 42 45 48 52 55 58 62 66 68 69 71 72 73 72 71 70 71 71 71 71 71 72 72 73 73 73 73 74 75 76 77 79
5 9 12 15 19 22 25 28 34 39 41 44 48 52 56 59 61 62 64 66 67 68 68 68 68 68 67 65 64 65 65 65 66 66 67 67 67 68 68 68 68 68 69 69
12 15 18 22 26 30 33 36 41 46 48 50 52 55 57 61 64 67 68 68 68 67 66 65 64 63 62 61 59 59 58 59 59 60 60 61 62 62 62 63 64 64 64 65

GFSNGP_250_spd_096.txt.gz
Wind_Speed
39 41 38 42 43 37 31 38 38 45 50 69 66 65 60 61 65 54 45 35 40 39 41 43 39 35 40 42 45 49 52 52 55 61 58 57 59 47 49 46 43 39 35 28
38 31 33 37 40 37 34 38 42 50 57 69 75 73 71 66 64 58 52 41 39 41 43 43 40 43 44 44 47 51 53 59 51 51 52 50 50 51 51 48 45 42 38 34
28 28 31 36 36 32 33 42 48 57 61 60 73 75 71 67 64 53 50 47 45 41 38 42 44 46 48 50 52 52 48 40 36 36 41 47 54 55 53 51 47 45 42 38
27 30 31 34 34 35 36 42 50 57 66 66 66 69 70 68 65 61 54 53 50 47 45 44 45 47 48 51 54 49 39 41 36 41 49 53 58 58 57 55 53 49 48 44
27 29 34 38 39 41 43 47 51 57 64 66 65 64 63 63 61 55 51 48 52 54 51 47 49 48 48 50 51 44 38 41 30 50 57 58 63 50 60 59 55 53 51 48
26 33 38 41 46 42 46 46 46 53 60 62 63 62 62 61 61 55 52 52 54 56 53 54 51 50 49 49 44 36 27 49 55 61 65 61 62 68 64 59 58 57 55 53
31 35 35 43 44 47 45 43 47 51 54 50 55 53 53 62 63 61 58 54 50 47 50 49 49 50 48 45 43 43 44 52 57 57 68 66 68 71 67 64 62 60 61 59
34 35 37 40 42 39 36 41 42 43 46 49 45 48 50 57 66 65 64 62 59 57 54 55 52 54 48 45 43 45 44 50 47 53 72 72 69 66 63 69 68 66 64 65
32 35 36 36 29 27 38 40 40 40 43 43 45 47 48 54 61 68 70 67 63 62 59 55 54 54 51 50 41 47 46 50 60 62 64 71 66 68 72 67 70 67 66 65
31 34 34 33 29 27 32 36 43 43 40 42 44 47 48 50 55 60 61 66 68 66 64 61 57 55 52 50 47 52 49 52 58 67 64 67 68 72 75 75 76 75 74 74
29 31 33 33 35 36 37 37 40 43 43 44 43 46 50 53 55 57 60 61 61 59 59 61 62 58 57 52 49 52 59 58 62 58 66 66 67 68 71 74 77 81 80 81
28 30 32 34 38 39 43 43 44 47 51 51 49 47 50 55 57 58 58 57 58 56 57 58 59 60 58 56 51 56 62 59 62 65 71 69 69 68 70 72 73 78 82 83
28 31 35 37 37 40 44 48 52 52 51 49 48 50 49 52 55 57 59 60 59 59 58 61 63 65 64 62 60 56 67 66 65 69 69 70 75 73 74 77 79 80 83 86
32 34 36 37 37 38 37 40 46 49 50 48 48 50 51 51 53 55 59 60 61 62 63 64 68 69 67 66 66 64 70 73 72 75 75 76 78 81 82 83 84 85 87 88
32 36 38 38 37 37 36 37 38 39 43 47 48 47 49 52 52 54 56 59 62 63 65 67 70 71 71 72 73 73 72 80 78 79 83 82 83 85 87 89 90 91 92 95
26 29 30 32 32 30 26 24 26 32 36 37 41 44 46 52 53 53 54 57 61 63 65 67 69 70 72 73 77 78 79 82 88 87 88 90 90 91 93 94 94 97 97 98
23 22 22 24 25 26 27 27 28 29 33 34 37 43 49 51 54 54 53 53 56 61 66 69 72 72 73 74 76 80 82 85 88 94 95 95 97 97 99 100 101 102 104 106
21 21 21 21 22 24 25 26 27 32 35 38 39 41 45 48 51 52 54 54 54 56 59 64 69 72 74 76 78 82 84 88 92 96 98 101 105 107 108 109 110 111 112 112
17 17 17 18 19 20 21 23 26 28 31 33 35 38 40 43 46 49 52 53 53 53 56 60 64 67 69 72 74 78 83 87 90 97 101 102 106 109 112 115 116 117 119 121
14 12 12 14 14 15 17 19 21 23 25 28 31 34 37 39 40 42 45 49 52 53 56 58 61 66 69 73 75 77 79 82 86 90 95 102 107 108 109 112 114 118 119 119
14 13 12 13 13 14 14 15 16 18 21 23 25 27 30 33 36 39 43 47 51 54 58 61 63 66 69 72 75 77 79 82 84 87 89 92 96 98 101 106 109 111 113 114
9 9 8 7 7 8 10 12 13 16 19 22 25 28 32 35 38 42 45 49 53 56 59 62 65 68 71 74 76 78 80 81 83 85 85 86 88 91 93 95 98 101 104 106
6 7 7 7 8 9 10 13 15 17 20 23 26 29 33 35 39 42 45 49 52 55 59 63 66 68 71 73 75 77 78 79 80 82 82 84 85 87 88 90 91 92 94 96
7 6 6 6 7 9 11 14 16 19 22 26 29 32 36 39 43 45 48 51 56 59 62 64 66 68 70 72 72 71 71 73 74 74 74 74 75 77 79 81 83 85 87 88
6 6 5 6 9 12 15 18 21 25 28 32 36 39 42 46 50 53 56 58 61 63 65 67 68 69 69 69 69 69 68 67 67 67 67 67 67 67 68 70 71 72 74 76
2 5 9 12 14 18 22 25 28 32 36 40 44 47 50 53 55 57 60 62 64 65 66 67 67 65 62 61 61 61 61 62 62 61 61 61 62 63 64 64 65 66 66 67
7 10 14 17 21 24 28 33 37 40 44 49 52 54 58 61 63 64 66 68 69 69 67 65 63 62 61 59 58 58 58 58 59 59 59 60 59 59 59 60 61 62 63 63

GFSNGP_250_spd_102.txt.gz
Wind_Speed
69 68 64 60 59 69 60 51 52 52 42 41 44 46 48 43 41 43 44 46 44 37 42 46 42 40 46 53 54 50 52 50 51 49 44 37 34 38 40 50 50 52 52 55
55 58 53 46 59 56 50 43 46 44 39 40 42 47 50 46 46 50 50 49 42 42 46 46 43 42 42 46 54 52 51 47 46 47 46 48 41 45 45 43 46 49 55 58
46 51 45 49 44 43 41 36 38 37 39 37 42 46 49 49 51 50 49 50 45 45 50 49 47 46 45 43 48 53 54 55 52 47 51 55 56 51 48 49 53 56 61 65
42 43 44 41 40 39 36 34 34 36 35 38 45 44 50 51 51 49 49 53 47 46 50 52 50 50 48 46 46 51 55 54 52 55 55 57 58 58 57 59 60 63 63 62
40 39 36 34 34 33 33 31 30 33 34 44 42 46 51 51 52 50 56 57 51 49 48 46 51 52 52 51 48 52 54 54 57 59 56 56 57 59 66 65 66 67 67 66
35 32 30 31 29 30 32 33 36 38 38 45 43 50 54 53 52 54 54 57 58 52 48 43 45 49 56 55 51 50 58 59 60 64 62 60 56 54 63 64 67 63 68 70
28 27 27 27 28 28 32 36 38 38 39 48 52 55 56 60 59 60 59 58 54 55 53 47 47 50 51 58 54 52 53 56 56 56 57 50 52 41 48 55 59 64 60 57
24 24 24 24 26 30 34 37 37 38 44 50 57 58 59 64 62 62 62 62 58 58 53 56 52 51 51 52 54 54 54 54 56 57 60 60 60 60 59 58 59 58 58 55
20 21 20 21 24 29 34 35 35 40 46 51 56 59 59 62 64 64 64 63 64 62 53 60 60 57 52 52 55 58 60 60 59 60 63 65 66 68 70 70 71 75 69 58
16 17 17 19 21 25 27 31 37 44 48 51 52 55 58 55 54 58 59 60 62 66 64 61 60 61 62 61 61 62 62 65 66 66 68 69 71 71 70 71 72 76 73 67
15 16 16 18 20 21 25 29 32 38 41 49 49 50 48 44 39 45 50 58 61 65 67 67 67 62 58 57 59 63 64 66 67 69 72 74 73 73 67 63 67 84 82 76
17 18 19 19 19 19 23 25 29 32 37 41 45 46 45 44 41 39 45 51 55 56 63 66 64 67 64 65 66 69 69 72 72 74 74 72 71 71 71 68 66 78 85 87
20 20 21 22 22 21 22 26 31 32 31 33 35 41 45 46 47 46 47 51 57 60 62 62 68 72 75 74 72 78 77 76 73 74 76 75 75 76 76 75 76 71 76 81
25 24 24 24 24 24 26 27 30 32 34 34 36 38 42 46 46 46 49 54 57 58 61 65 70 73 76 77 77 79 85 82 80 80 80 79 81 83 83 81 81 78 75 79
27 29 28 27 28 29 30 30 32 35 37 40 42 43 43 49 51 52 54 54 55 57 59 60 63 68 72 74 77 81 83 85 85 86 88 89 88 88 89 89 88 87 86 83
27 27 27 29 32 32 33 35 37 38 40 39 40 41 43 44 44 44 42 43 50 56 59 61 62 62 64 67 71 74 78 83 86 88 90 92 93 94 94 94 92 92 91 91
20 22 24 26 25 22 22 19 20 20 24 29 31 35 35 37 36 40 41 43 50 52 51 52 55 59 60 61 63 66 71 75 77 81 86 90 93 94 95 95 95 94 95 96
20 19 18 18 18 18 19 20 21 22 23 25 27 30 32 34 37 40 43 45 46 46 46 48 51 53 56 59 62 65 67 69 72 75 79 83 87 90 93 96 98 99 98 99
16 16 16 16 17 17 17 17 17 18 19 21 23 25 27 29 31 34 36 38 39 41 43 46 49 52 55 59 61 63 66 69 73 75 77 79 82 86 90 94 97 100 101 101
13 13 13 14 15 15 16 16 16 17 18 20 22 24 25 27 29 31 34 36 39 41 43 45 48 51 53 56 59 62 66 69 72 76 79 81 83 85 86 88 90 93 95 97
12 10 10 11 12 12 13 13 14 15 17 18 20 21 23 24 26 28 31 35 38 41 44 46 49 52 55 58 61 64 66 69 71 74 76 78 81 83 85 87 88 88 89 90
10 10 10 10 11 11 11 11 12 13 14 16 18 20 22 25 27 30 33 36 39 42 46 49 52 55 58 61 63 65 67 69 71 73 75 76 78 79 81 82 84 85 86 87
9 9 11 10 8 8 9 11 13 15 16 18 20 21 24 26 30 33 37 40 44 47 51 54 57 60 63 65 67 68 70 71 73 74 75 76 77 77 78 79 80 81 83 84
10 9 8 8 9 10 12 12 13 15 17 19 21 25 28 31 35 39 42 46 49 53 56 59 61 63 63 65 66 67 68 69 70 70 71 72 73 74 74 75 76 77 77 78
8 8 8 9 9 9 10 13 15 17 20 23 26 30 34 38 41 44 48 52 55 58 61 64 65 65 66 66 66 66 66 65 65 65 64 64 64 65 65 65 66 67 68 69
8 8 7 7 9 11 14 16 18 22 26 30 33 37 40 43 46 50 54 58 61 63 63 64 64 64 64 64 63 61 61 60 58 58 58 58 59 60 61 61 62 62 63 64
7 6 7 9 12 14 17 20 25 29 31 36 39 43 45 48 52 56 58 61 63 64 64 64 64 64 63 61 60 59 58 57 57 57 58 57 57 56 57 58 59 59 60 61

GFSNGP_250_spd_108.txt.gz
Wind_Speed
36 40 44 46 49 53 55 58 54 57 52 65 56 48 46 40 42 41 37 38 35 33 29 30 28 29 31 36 41 40 39 35 33 36 36 34 37 38 40 40 37 41 44 43
39 43 46 47 51 53 54 55 51 53 54 47 49 46 32 35 36 35 34 32 31 29 29 30 28 32 36 44 44 41 41 37 35 37 41 44 45 42 41 43 45 48 52 50
43 49 49 49 56 55 52 53 50 46 41 39 43 35 35 31 32 31 32 31 30 27 29 30 32 34 39 44 47 47 47 42 39 43 48 47 47 39 39 43 42 44 45 46
48 53 50 51 52 51 47 46 41 35 36 33 34 33 32 29 28 31 30 30 29 28 32 33 36 38 40 43 51 52 49 48 45 45 45 49 47 41 41 39 40 43 45 49
50 50 46 43 45 43 42 39 36 33 31 29 29 31 29 27 28 26 28 30 29 31 35 35 40 40 43 40 54 55 53 52 49 44 46 46 46 42 41 38 40 42 44 46
44 42 41 39 40 40 39 38 33 29 27 26 27 27 27 28 26 24 27 29 30 33 37 37 40 41 45 44 49 55 56 55 54 48 47 47 48 49 46 45 44 42 46 49
38 38 37 36 34 33 34 33 29 26 24 24 24 25 26 25 24 25 27 27 30 34 39 40 41 44 43 46 47 48 45 58 57 55 52 51 51 52 53 54 48 48 50 55
34 35 35 34 32 31 29 28 23 22 21 23 22 23 25 25 24 25 28 29 31 35 42 41 43 46 45 47 46 45 45 52 61 60 58 56 53 56 55 55 57 61 60 61
32 30 29 26 25 24 24 22 20 20 21 23 23 26 26 27 26 28 28 31 34 38 41 46 45 46 51 46 48 50 49 49 55 66 64 61 59 58 59 61 58 59 58 68
24 22 21 20 18 19 20 18 19 20 24 25 26 27 28 30 31 32 32 35 40 39 39 44 48 46 49 51 50 51 52 52 53 55 60 69 71 66 65 64 63 65 67 70
18 18 17 16 16 18 18 20 21 23 26 28 29 31 32 35 35 35 37 37 39 38 39 41 42 49 53 56 55 54 57 57 56 58 60 61 65 70 72 74 74 72 72 73
17 16 16 16 17 20 20 21 24 27 32 32 32 33 35 39 41 41 41 40 40 40 40 42 43 44 51 59 60 60 61 64 63 62 64 68 68 69 70 74 76 83 88 87
18 17 18 17 19 21 22 21 24 25 27 32 31 34 37 39 42 44 41 39 38 39 40 41 45 47 48 51 57 66 67 68 70 71 71 74 75 78 78 77 79 80 85 88
20 20 20 20 21 21 22 22 24 26 29 31 32 33 35 36 39 40 39 37 36 35 39 42 45 48 51 54 58 63 70 77 80 79 78 80 81 84 86 88 89 89 89 89
22 22 23 22 24 24 25 25 26 27 28 30 32 34 37 36 36 38 41 43 43 44 44 45 50 55 60 67 73 76 77 74 79 81 86 87 89 90 91 93 94 98 99 101
23 22 25 24 25 27 28 30 31 32 33 33 33 34 36 38 39 41 44 46 48 50 52 56 58 62 64 68 72 73 75 78 79 81 87 91 95 99 98 101 104 105 107 107
20 19 20 23 21 22 26 28 28 30 31 32 35 38 40 41 42 44 46 49 50 52 54 55 55 57 59 61 64 65 67 68 73 76 79 85 92 95 100 105 105 109 111 115
18 19 19 18 18 20 22 22 21 21 22 25 26 29 33 38 42 43 46 48 49 50 51 51 52 52 54 56 57 58 60 64 66 68 72 75 78 83 88 93 98 103 110 115
21 20 19 18 17 17 18 20 22 23 25 27 28 30 31 32 33 33 33 34 37 38 39 41 43 44 46 47 49 51 53 57 60 63 65 68 71 76 80 83 87 90 94 98
18 18 17 18 19 20 21 21 22 22 22 22 23 24 25 26 27 27 28 30 31 32 33 35 36 38 41 43 46 48 51 53 56 59 62 66 69 73 76 80 83 86 89 92
18 18 18 18 19 19 19 18 18 17 16 16 17 17 18 18 19 20 21 22 24 26 28 30 33 36 39 42 45 48 51 54 56 59 63 66 69 71 74 77 80 83 86 88
16 17 17 17 17 16 15 13 12 12 12 11 11 12 13 14 15 18 20 22 25 27 31 34 38 41 44 47 51 53 56 59 62 65 67 70 72 74 76 77 79 81 83 85
16 16 16 14 11 11 11 11 10 9 8 9 9 11 12 15 17 20 24 27 30 34 37 40 44 47 50 53 56 59 61 64 67 69 71 73 74 74 74 74 74 74 75 76
14 14 13 12 11 11 11 10 8 6 7 9 10 12 16 19 23 27 30 33 37 41 44 47 50 53 57 59 61 64 66 67 69 71 72 72 72 72 72 72 71 70 70 69
12 11 13 13 14 11 8 7 6 7 9 12 14 17 22 26 29 32 35 38 42 46 49 53 56 59 61 63 65 66 67 68 70 70 70 69 68 68 67 67 67 66 66 65
13 13 13 13 11 8 6 7 8 11 13 16 19 23 27 30 33 36 40 44 47 52 55 58 60 61 64 64 64 65 67 67 66 65 64 63 62 61 61 60 60 61 61 62
13 12 12 10 7 6 8 10 12 15 17 21 25 28 31 35 38 42 45 49 54 58 61 62 62 63 62 63 64 64 62 61 60 59 58 58 58 58 59 59 58 58 58 60

GFSNGP_250_spd_114.txt.gz
Wind_Speed
27 25 24 24 25 28 30 33 35 43 43 46 46 44 45 48 54 54 57 62 64 65 64 63 62 64 61 57 50 44 42 40 36 31 34 36 44 44 42 36 24 22 27 27
29 29 27 28 31 34 36 38 39 42 44 48 49 48 51 52 56 56 59 58 58 56 55 52 52 48 45 41 36 30 37 38 33 38 38 43 45 40 37 36 37 32 32 34
30 32 33 33 36 38 41 43 46 49 51 51 53 53 52 53 51 51 52 55 55 53 50 47 45 41 36 32 28 34 37 37 39 42 37 43 39 34 32 32 33 34 36 36
34 36 35 38 35 40 42 45 48 51 49 54 55 52 52 50 50 50 47 45 43 41 38 39 36 31 28 26 28 37 38 41 43 44 34 37 35 32 30 33 33 32 29 31
32 36 40 42 42 47 47 50 51 54 52 52 51 46 46 43 41 41 40 35 35 33 33 31 28 26 27 31 36 42 42 45 44 39 40 41 37 35 34 35 35 33 30 27
40 43 43 44 44 46 46 51 51 47 44 42 39 36 33 35 35 34 32 31 29 27 25 25 27 29 34 39 46 47 44 47 42 42 41 38 40 33 38 37 37 37 33 34
44 45 44 48 47 45 44 43 39 37 36 35 33 29 30 29 28 29 28 25 24 24 24 27 30 33 38 41 49 50 46 49 48 47 44 37 38 41 40 41 37 41 40 36
46 46 45 43 40 37 37 34 32 30 30 31 27 26 24 23 24 25 24 24 24 23 27 30 33 37 40 43 45 50 50 54 51 49 47 42 42 46 41 44 40 41 42 41
43 41 37 35 33 33 32 30 28 27 25 23 24 23 22 23 22 22 24 24 25 27 30 32 34 37 41 43 44 47 55 58 57 55 52 48 44 45 52 50 48 47 45 45
39 35 32 32 33 32 30 28 26 23 20 20 22 22 23 22 21 22 24 27 28 30 30 30 30 35 37 41 46 46 52 53 61 60 59 53 53 51 51 55 53 53 52 53
35 33 33 33 32 28 27 24 21 18 17 20 21 22 22 22 23 24 27 30 31 34 36 38 36 37 42 45 46 51 54 57 58 63 64 64 60 58 60 61 63 60 61 61
35 33 31 29 27 24 23 19 18 18 20 23 24 24 24 25 25 28 29 32 35 36 37 38 41 42 43 44 49 50 55 59 61 62 66 66 69 66 66 67 67 71 69 71
33 30 27 24 22 19 19 19 20 22 24 26 26 27 27 28 27 29 31 34 37 39 40 41 41 44 46 47 50 55 57 61 63 68 68 71 72 72 75 74 74 76 78 79
30 27 24 22 20 19 19 21 23 24 27 30 31 31 30 32 33 33 33 36 39 41 43 46 49 51 52 52 54 57 60 65 69 70 75 75 76 77 80 80 84 83 83 86
28 26 24 22 20 19 19 20 23 28 29 32 35 35 36 36 37 38 40 42 42 42 43 45 48 49 51 53 53 55 59 66 71 76 79 80 82 83 85 87 90 93 95 96
27 25 24 22 22 21 21 22 21 25 28 30 31 35 37 37 39 39 39 40 40 40 42 44 44 46 48 52 55 60 62 64 68 73 78 81 86 87 89 91 94 97 99 101
26 26 25 24 24 23 22 22 25 28 30 31 32 33 34 34 36 38 40 42 44 47 50 51 53 56 57 57 59 62 63 66 69 72 76 80 85 87 92 97 98 100 102 106
27 26 26 26 25 24 24 25 24 24 28 32 33 35 37 38 39 39 41 43 46 50 53 53 52 51 51 51 53 55 57 59 63 67 70 75 80 84 89 92 96 100 104 107
28 26 27 27 27 28 27 27 27 29 31 29 32 36 37 40 41 43 46 48 49 50 48 49 50 50 50 50 50 50 52 52 54 57 60 64 68 72 76 80 85 90 96 104
27 26 27 29 30 31 31 31 30 29 29 29 31 33 36 39 41 43 44 43 42 41 41 42 42 43 43 44 45 46 48 50 52 54 56 59 62 65 67 71 75 80 85 91
24 24 24 24 25 27 29 30 31 31 30 31 33 35 36 35 35 36 36 37 37 36 36 37 37 37 39 40 42 44 45 48 50 53 56 59 62 65 68 72 75 79 82 85
22 22 22 24 24 25 26 27 28 30 31 31 31 32 33 32 31 31 30 30 30 31 32 32 34 35 36 38 41 44 48 51 54 57 60 62 65 69 73 76 79 81 83 85
20 20 21 22 23 25 26 26 27 27 28 27 27 27 26 26 26 26 25 26 27 29 30 31 33 36 39 41 44 47 50 54 58 61 64 67 70 73 75 77 78 78 79 78
19 20 21 21 22 22 22 23 23 23 24 24 23 24 24 24 23 24 25 25 26 28 30 33 35 38 41 45 49 52 56 60 64 66 69 71 73 73 74 74 73 74 73 73
18 19 19 19 19 19 20 21 22 22 22 21 21 20 21 22 23 22 24 25 27 30 34 36 39 42 47 51 55 59 63 66 68 69 70 71 71 71 70 69 68 68 69 69
18 19 18 18 18 18 19 20 20 20 19 18 19 20 20 21 22 24 26 29 31 33 37 41 46 50 54 58 62 66 69 69 71 72 72 71 69 67 67 67 67 66 66 66
17 18 19 18 18 18 18 17 17 17 17 17 19 19 21 22 23 25 28 32 35 38 42 47 52 57 61 64 68 70 71 72 72 71 69 68 67 66 65 65 64 64 64 63

GFSNGP_250_spd_120.txt.gz
Wind_Speed
71 70 62 51 50 49 47 45 38 36 31 27 28 25 28 31 33 34 36 37 37 38 41 41 39 39 43 44 41 39 39 39 39 40 43 46 51 51 51 53 54 54 51 48
60 57 48 43 45 45 39 37 39 34 31 30 27 27 26 29 31 31 34 36 41 41 42 43 45 45 44 44 42 40 38 37 36 38 40 42 43 43 45 45 44 40 36 34
48 46 43 41 43 42 39 38 36 35 33 31 33 34 35 37 39 40 40 42 44 45 46 49 51 48 44 41 41 40 36 33 32 35 35 35 33 33 32 31 30 31 34 35
43 43 39 40 39 39 38 35 34 34 35 35 35 37 39 40 41 42 44 45 44 45 46 45 43 43 42 43 43 38 34 28 29 31 29 27 26 24 24 29 31 35 40 40
38 39 36 38 40 37 37 35 37 38 41 43 45 46 45 44 46 46 45 42 43 43 44 44 44 43 42 41 38 33 28 27 28 29 27 28 25 26 29 32 35 41 43 41
35 34 35 40 38 38 38 44 44 44 47 50 51 47 43 42 43 43 41 41 40 39 38 38 36 34 33 33 31 28 27 29 32 31 31 31 28 32 30 31 35 44 45 45
34 35 38 39 39 41 43 45 47 49 46 47 47 43 40 36 35 32 32 32 33 33 30 28 28 30 31 30 28 28 30 32 34 35 34 32 32 36 32 31 33 43 44 50
36 38 38 38 41 42 45 48 47 44 41 39 37 35 34 31 30 28 28 29 30 28 26 27 28 29 28 27 27 29 33 33 38 40 36 35 36 39 36 35 35 40 39 42
36 36 37 39 40 42 44 44 41 37 35 35 35 33 31 29 28 27 27 26 25 25 25 26 26 26 26 28 30 32 35 38 42 46 43 41 41 41 39 41 41 42 43 40
36 36 37 39 40 42 40 36 35 32 30 29 27 26 26 25 25 25 24 24 23 24 24 25 27 29 29 31 32 35 37 38 44 45 43 44 44 47 44 46 46 46 46 46
36 36 37 39 40 38 33 33 30 27 25 22 20 19 18 20 21 20 20 20 20 21 23 26 27 28 31 34 36 37 37 39 43 48 49 48 47 50 53 50 51 52 50 51
35 36 36 37 35 32 29 29 26 25 21 19 17 15 16 17 17 18 19 21 22 23 24 25 27 30 34 38 38 38 39 43 43 51 57 55 50 53 54 59 56 59 60 58
34 35 36 35 31 28 28 26 25 22 18 16 14 15 16 18 20 21 23 24 24 23 23 26 28 30 34 37 42 44 45 47 51 53 56 59 60 61 62 63 67 66 67 70
34 35 34 32 29 27 27 26 24 20 18 17 16 17 19 21 24 25 27 27 29 29 30 31 34 38 39 41 43 45 49 54 56 57 60 61 65 66 68 68 73 75 75 77
35 35 31 29 28 28 26 25 23 22 20 20 21 24 25 26 28 29 30 32 33 34 35 38 40 41 42 45 47 50 52 53 54 57 61 64 67 68 71 74 79 80 84 85
36 34 30 29 30 29 27 25 24 23 23 23 26 28 29 30 30 32 34 36 37 38 40 41 43 45 47 48 50 51 52 53 53 54 56 59 63 66 70 74 79 85 89 93
34 32 31 30 30 30 29 27 24 27 27 27 27 31 33 33 36 36 37 38 40 41 43 45 47 48 50 51 53 55 56 57 56 56 57 60 63 66 69 73 75 78 82 87
34 33 32 32 31 31 31 30 28 28 32 32 32 33 34 38 40 41 42 42 43 43 44 47 48 49 51 54 57 57 58 56 54 54 56 57 60 63 66 68 70 72 74 78
34 34 34 33 31 31 32 32 30 31 33 35 36 37 39 39 41 44 45 47 49 50 51 52 54 56 57 57 53 50 47 48 51 53 54 55 54 56 58 61 63 64 67 70
34 34 33 32 32 31 31 31 31 32 34 37 39 40 40 42 42 42 43 46 49 50 52 54 56 55 53 49 48 50 51 50 49 50 51 52 52 53 53 54 56 58 61 64
34 32 32 30 31 31 30 30 30 30 32 34 37 40 41 41 40 41 41 43 45 48 51 51 51 49 48 49 50 49 47 46 46 46 47 48 49 51 53 56 59 61 64 67
32 30 30 29 28 27 27 28 28 29 30 31 33 34 35 37 39 40 42 44 45 45 45 46 45 44 45 45 44 44 43 42 44 45 47 50 52 54 57 60 64 67 71 74
28 27 27 25 25 25 27 28 29 30 31 31 32 34 35 37 38 40 41 40 40 39 39 39 39 39 39 39 39 40 41 43 46 49 51 54 56 60 64 67 70 73 75 77
24 23 23 23 24 24 25 26 27 29 30 31 31 32 33 34 35 35 36 36 36 36 35 34 34 34 35 37 39 41 45 48 50 53 56 59 62 66 68 70 72 74 76 77
21 20 21 21 22 23 23 24 25 26 26 27 29 29 30 31 31 31 32 32 32 31 30 31 32 35 37 40 43 46 49 52 55 57 61 64 67 70 71 73 74 75 75 74
18 18 19 20 20 21 21 21 23 24 25 26 27 28 27 26 27 27 28 29 30 29 30 31 34 37 39 42 46 49 52 54 57 60 64 67 69 71 73 74 74 74 73 72
18 18 18 19 21 20 21 22 22 23 23 24 23 24 25 26 25 25 26 27 29 31 34 35 38 41 43 45 48 52 55 58 61 65 68 70 72 72 73 73 72 70 69 67